• In Hungary
  • List of Countries
  • For 7 days
  • Water Temperature
  • Satellite Maps
  • Weather Map
  • News
  • Weather Widgets
  • user-avatar
    Login

    Hourly Weather Konso

    Today, 22 November, Wednesday

    Time Temperature Precipitation Wind Pressure Humidity
    00:00 +20°C° 0 mm 1 mps 646 mmHg 46%
    01:00 +20°C° 0 mm 1 mps 645 mmHg 48%
    02:00 +19°C° 0 mm 1 mps 645 mmHg 50%
    03:00 +19°C° 0 mm 1 mps 645 mmHg 51%
    04:00 +18°C° 0 mm 1 mps 645 mmHg 52%
    05:00 +18°C° 0 mm 1 mps 645 mmHg 54%
    06:00 +20°C° 0 mm 1 mps 646 mmHg 48%
    07:00 +23°C° 0 mm 1 mps 647 mmHg 43%
    08:00 +25°C° 0 mm 1 mps 648 mmHg 38%
    09:00 +27°C° 0 mm 1 mps 648 mmHg 35%
    10:00 +29°C° 0 mm 1 mps 649 mmHg 32%
    11:00 +31°C° 0 mm 1 mps 649 mmHg 29%
    12:00 +31°C° 0 mm 1 mps 648 mmHg 29%
    13:00 +31°C° 0 mm 1 mps 648 mmHg 28%
    14:00 +31°C° 0 mm 1 mps 647 mmHg 28%
    15:00 +30°C° 0 mm 1 mps 646 mmHg 31%
    16:00 +28°C° 0 mm 1 mps 646 mmHg 35%
    17:00 +26°C° 0 mm 1 mps 645 mmHg 38%
    18:00 +25°C° 0 mm 1 mps 645 mmHg 41%
    19:00 +24°C° 0 mm 1 mps 646 mmHg 43%
    20:00 +22°C° 0 mm 1 mps 646 mmHg 45%
    21:00 +22°C° 0 mm 1 mps 646 mmHg 48%
    22:00 +21°C° 0 mm 1 mps 646 mmHg 50%
    23:00 +21°C° 0 mm 1 mps 646 mmHg 52%

    Tomorrow, 23 November, Thursday

    Time Temperature Precipitation Wind Pressure Humidity
    00:00 +20°C° 0 mm 1 mps 645 mmHg 53%
    01:00 +20°C° 0 mm 1 mps 645 mmHg 55%
    02:00 +20°C° 0 mm 1 mps 645 mmHg 56%
    03:00 +19°C° 0 mm 1 mps 645 mmHg 57%
    04:00 +19°C° 0 mm 1 mps 645 mmHg 59%
    05:00 +19°C° 0 mm 1 mps 645 mmHg 60%
    06:00 +21°C° 0 mm 1 mps 646 mmHg 54%
    07:00 +23°C° 0 mm 2 mps 647 mmHg 48%
    08:00 +25°C° 0 mm 2 mps 648 mmHg 43%
    09:00 +27°C° 0 mm 2 mps 648 mmHg 38%
    10:00 +30°C° 0 mm 1 mps 648 mmHg 34%
    11:00 +32°C° 0 mm 1 mps 648 mmHg 30%
    12:00 +32°C° 0 mm 1 mps 648 mmHg 29%
    13:00 +32°C° 0 mm 1 mps 647 mmHg 29%
    14:00 +32°C° 0 mm 1 mps 646 mmHg 28%
    15:00 +30°C° 0 mm 1 mps 646 mmHg 32%
    16:00 +29°C° 0 mm 1 mps 645 mmHg 35%
    17:00 +27°C° 0 mm 1 mps 645 mmHg 39%
    18:00 +26°C° 0 mm 1 mps 645 mmHg 41%
    19:00 +25°C° 0 mm 1 mps 646 mmHg 44%
    20:00 +23°C° 0 mm 1 mps 646 mmHg 47%
    21:00 +23°C° 0 mm 1 mps 646 mmHg 49%
    22:00 +22°C° 0 mm 1 mps 646 mmHg 51%
    23:00 +22°C° 0 mm 1 mps 646 mmHg 53%

    Day after tomorrow, 24 November, Friday

    Time Temperature Precipitation Wind Pressure Humidity
    00:00 +21°C° 0 mm 1 mps 646 mmHg 56%
    01:00 +21°C° 0 mm 1 mps 645 mmHg 59%
    02:00 +19°C° 0 mm 2 mps 645 mmHg 62%
    03:00 +19°C° 0 mm 2 mps 645 mmHg 65%
    04:00 +19°C° 0 mm 2 mps 645 mmHg 68%
    05:00 +18°C° 0 mm 2 mps 645 mmHg 71%
    06:00 +20°C° 0 mm 2 mps 646 mmHg 64%
    07:00 +23°C° 0 mm 2 mps 647 mmHg 58%
    08:00 +25°C° 0 mm 3 mps 648 mmHg 51%
    09:00 +27°C° 0 mm 3 mps 648 mmHg 46%
    10:00 +29°C° 0 mm 2 mps 648 mmHg 41%
    11:00 +31°C° 0 mm 2 mps 648 mmHg 36%
    12:00 +31°C° 0 mm 2 mps 647 mmHg 36%
    13:00 +30°C° 0 mm 2 mps 647 mmHg 35%
    14:00 +30°C° 0 mm 2 mps 646 mmHg 35%
    15:00 +29°C° 0 mm 1 mps 646 mmHg 38%
    16:00 +28°C° 0 mm 1 mps 645 mmHg 41%
    17:00 +27°C° 0 mm 1 mps 645 mmHg 44%
    18:00 +25°C° 0 mm 1 mps 646 mmHg 48%
    19:00 +24°C° 0 mm 1 mps 646 mmHg 51%
    20:00 +23°C° 0 mm 2 mps 646 mmHg 54%
    21:00 +22°C° 0 mm 1 mps 646 mmHg 57%
    22:00 +22°C° 0 mm 1 mps 646 mmHg 60%
    23:00 +21°C° 0 mm 1 mps 646 mmHg 63%

    25 November, Saturday

    Time Temperature Precipitation Wind Pressure Humidity
    00:00 +21°C° 0 mm 1 mps 646 mmHg 65%
    01:00 +20°C° 0 mm 1 mps 646 mmHg 67%
    02:00 +20°C° 0 mm 1 mps 645 mmHg 69%
    03:00 +20°C° 0 mm 1 mps 645 mmHg 71%
    04:00 +19°C° 0 mm 1 mps 646 mmHg 73%
    05:00 +19°C° 0 mm 1 mps 646 mmHg 75%
    06:00 +20°C° 0 mm 2 mps 647 mmHg 67%
    07:00 +23°C° 0 mm 2 mps 648 mmHg 60%
    08:00 +25°C° 0 mm 3 mps 649 mmHg 52%
    09:00 +27°C° 0 mm 3 mps 649 mmHg 46%
    10:00 +29°C° 0 mm 3 mps 649 mmHg 39%
    11:00 +31°C° 0 mm 3 mps 649 mmHg 33%
    12:00 +31°C° 0 mm 3 mps 648 mmHg 32%
    13:00 +31°C° 0 mm 3 mps 647 mmHg 30%
    14:00 +33°C° 0 mm 3 mps 647 mmHg 29%
    15:00 +30°C° 0 mm 2 mps 647 mmHg 33%
    16:00 +29°C° 0 mm 2 mps 646 mmHg 36%
    17:00 +27°C° 0 mm 2 mps 646 mmHg 40%
    18:00 +26°C° 0.1 mm 2 mps 647 mmHg 45%
    19:00 +24°C° 0.1 mm 2 mps 647 mmHg 51%
    20:00 +23°C° 0.1 mm 2 mps 647 mmHg 56%
    21:00 +21°C° 0 mm 2 mps 647 mmHg 59%
    22:00 +21°C° 0 mm 2 mps 647 mmHg 63%
    23:00 +20°C° 0 mm 2 mps 647 mmHg 67%

    26 November, Sunday

    Time Temperature Precipitation Wind Pressure Humidity
    00:00 +19°C° 0 mm 2 mps 647 mmHg 69%
    01:00 +19°C° 0 mm 2 mps 646 mmHg 72%
    02:00 +19°C° 0 mm 2 mps 646 mmHg 74%
    03:00 +18°C° 0 mm 2 mps 646 mmHg 75%
    04:00 +18°C° 0 mm 2 mps 647 mmHg 76%
    05:00 +18°C° 0 mm 2 mps 647 mmHg 77%
    06:00 +20°C° 0 mm 2 mps 648 mmHg 68%
    07:00 +22°C° 0 mm 3 mps 649 mmHg 58%
    08:00 +25°C° 0 mm 3 mps 650 mmHg 48%
    09:00 +27°C° 0 mm 4 mps 649 mmHg 43%
    10:00 +29°C° 0 mm 4 mps 649 mmHg 37%
    11:00 +32°C° 0 mm 4 mps 649 mmHg 32%
    12:00 +31°C° 0 mm 3 mps 649 mmHg 31%
    13:00 +33°C° 0 mm 3 mps 648 mmHg 29%
    14:00 +33°C° 0 mm 3 mps 647 mmHg 28%
    15:00 +31°C° 0 mm 3 mps 647 mmHg 31%
    16:00 +29°C° 0 mm 3 mps 647 mmHg 35%
    17:00 +28°C° 0 mm 2 mps 647 mmHg 38%
    18:00 +26°C° 0 mm 2 mps 647 mmHg 42%
    19:00 +25°C° 0 mm 2 mps 647 mmHg 46%
    20:00 +23°C° 0 mm 2 mps 648 mmHg 50%
    21:00 +23°C° 0 mm 2 mps 648 mmHg 53%
    22:00 +21°C° 0 mm 2 mps 647 mmHg 56%
    23:00 +20°C° 0 mm 2 mps 647 mmHg 59%

    27 November, Monday

    Time Temperature Precipitation Wind Pressure Humidity
    00:00 +20°C° 0 mm 2 mps 647 mmHg 61%
    01:00 +19°C° 0 mm 2 mps 646 mmHg 63%
    02:00 +19°C° 0 mm 2 mps 646 mmHg 65%
    03:00 +18°C° 0 mm 2 mps 646 mmHg 66%
    04:00 +18°C° 0 mm 2 mps 646 mmHg 67%
    05:00 +18°C° 0 mm 2 mps 647 mmHg 68%
    06:00 +20°C° 0 mm 2 mps 648 mmHg 60%
    07:00 +22°C° 0 mm 3 mps 649 mmHg 52%
    08:00 +25°C° 0 mm 4 mps 649 mmHg 44%
    09:00 +27°C° 0 mm 3 mps 649 mmHg 40%
    10:00 +29°C° 0 mm 3 mps 649 mmHg 36%
    11:00 +31°C° 0 mm 3 mps 649 mmHg 32%
    12:00 +31°C° 0 mm 3 mps 648 mmHg 32%
    13:00 +33°C° 0 mm 3 mps 648 mmHg 31%
    14:00 +32°C° 0 mm 2 mps 647 mmHg 30%
    15:00 +30°C° 0.3 mm 2 mps 647 mmHg 35%
    16:00 +29°C° 0.3 mm 3 mps 647 mmHg 39%
    17:00 +27°C° 0.3 mm 3 mps 647 mmHg 44%
    18:00 +25°C° 0.8 mm 3 mps 647 mmHg 51%
    19:00 +24°C° 0.8 mm 3 mps 647 mmHg 57%
    20:00 +21°C° 0.8 mm 2 mps 647 mmHg 64%
    21:00 +21°C° 0 mm 2 mps 647 mmHg 66%
    22:00 +21°C° 0 mm 2 mps 647 mmHg 68%
    23:00 +20°C° 0 mm 2 mps 647 mmHg 69%
    Show more